TimeMDT,TemperatureF,Dew PointF,Humidity,Sea Level PressureIn,VisibilityMPH,Wind Direction,Wind SpeedMPH,Gust SpeedMPH,PrecipitationIn,Events,Conditions,WindDirDegrees,DateUTC
12:15 AM,60.8,33.8,36,30.06,10.0,South,5.8,-,N/A,,Clear,170,2012-09-06 06:15:00
12:35 AM,60.8,30.2,31,30.07,10.0,Calm,Calm,-,N/A,,Clear,0,2012-09-06 06:35:00
12:55 AM,59.0,32.0,36,30.07,10.0,Calm,Calm,-,N/A,,Clear,0,2012-09-06 06:55:00
1:15 AM,57.2,37.4,48,30.09,10.0,North,9.2,-,N/A,,Clear,360,2012-09-06 07:15:00
1:35 AM,59.0,33.8,39,30.07,10.0,North,4.6,-,N/A,,Clear,360,2012-09-06 07:35:00
2:15 AM,55.4,33.8,44,30.08,10.0,West,3.5,-,N/A,,Clear,260,2012-09-06 08:15:00
2:35 AM,57.2,37.4,48,30.08,10.0,Calm,Calm,-,N/A,,Clear,0,2012-09-06 08:35:00
2:55 AM,57.2,37.4,48,30.08,10.0,Calm,Calm,-,N/A,,Clear,0,2012-09-06 08:55:00
3:15 AM,57.2,35.6,44,30.07,10.0,Calm,Calm,-,N/A,,Clear,0,2012-09-06 09:15:00
3:35 AM,55.4,32.0,41,30.08,10.0,Calm,Calm,-,N/A,,Clear,0,2012-09-06 09:35:00
3:55 AM,60.8,33.8,36,30.07,10.0,Calm,Calm,-,N/A,,Clear,0,2012-09-06 09:55:00
4:15 AM,55.4,33.8,44,30.07,10.0,Calm,Calm,-,N/A,,Clear,0,2012-09-06 10:15:00
4:55 AM,55.4,33.8,44,30.08,10.0,SSE,3.5,-,N/A,,Clear,160,2012-09-06 10:55:00
5:15 AM,55.4,30.2,38,30.08,10.0,SSE,5.8,-,N/A,,Clear,150,2012-09-06 11:15:00
5:35 AM,59.0,28.4,31,30.09,10.0,West,4.6,-,N/A,,Clear,260,2012-09-06 11:35:00
5:55 AM,51.8,39.2,62,30.10,10.0,North,4.6,-,N/A,,Clear,360,2012-09-06 11:55:00
6:15 AM,50.0,37.4,62,30.10,10.0,NNW,3.5,-,N/A,,Clear,340,2012-09-06 12:15:00
6:35 AM,51.8,33.8,50,30.10,10.0,NW,4.6,-,N/A,,Clear,310,2012-09-06 12:35:00
6:55 AM,53.6,30.2,41,30.11,10.0,WNW,6.9,-,N/A,,Clear,290,2012-09-06 12:55:00
7:15 AM,53.6,30.2,41,30.11,10.0,Calm,Calm,-,N/A,,Clear,0,2012-09-06 13:15:00
7:55 AM,59.0,39.2,48,30.11,10.0,SSE,4.6,-,N/A,,Clear,150,2012-09-06 13:55:00
8:15 AM,62.6,33.8,34,30.11,10.0,Calm,Calm,-,N/A,,Clear,0,2012-09-06 14:15:00
8:35 AM,64.4,33.8,32,30.11,10.0,Calm,Calm,-,N/A,,Clear,0,2012-09-06 14:35:00
8:55 AM,66.2,32.0,28,30.10,10.0,Calm,Calm,-,N/A,,Clear,0,2012-09-06 14:55:00
9:35 AM,73.4,32.0,22,30.11,10.0,SSE,3.5,-,N/A,,Clear,160,2012-09-06 15:35:00
9:55 AM,75.2,35.6,24,30.11,10.0,SSW,3.5,-,N/A,,Clear,200,2012-09-06 15:55:00
10:15 AM,78.8,33.8,20,30.11,10.0,SE,4.6,-,N/A,,Clear,130,2012-09-06 16:15:00
10:35 AM,80.6,33.8,18,30.10,10.0,Calm,Calm,-,N/A,,Clear,0,2012-09-06 16:35:00
10:55 AM,80.6,35.6,20,30.10,10.0,SE,3.5,-,N/A,,Clear,130,2012-09-06 16:55:00
11:15 AM,84.2,30.2,14,30.08,10.0,SSE,6.9,-,N/A,,Clear,160,2012-09-06 17:15:00
11:35 AM,86.0,28.4,12,30.07,10.0,ESE,5.8,-,N/A,,Clear,120,2012-09-06 17:35:00
11:55 AM,87.8,28.4,12,30.06,3.0,ESE,6.9,16.1,N/A,,Clear,110,2012-09-06 17:55:00
12:15 PM,87.8,28.4,12,30.05,3.0,East,6.9,-,N/A,,Clear,100,2012-09-06 18:15:00
12:35 PM,87.8,28.4,12,30.04,3.0,ESE,9.2,17.3,N/A,,Clear,120,2012-09-06 18:35:00
12:55 PM,89.6,28.4,11,30.03,7.0,SE,12.7,-,N/A,,Clear,140,2012-09-06 18:55:00
1:15 PM,89.6,28.4,11,30.02,3.0,ESE,11.5,-,N/A,,Clear,120,2012-09-06 19:15:00
1:55 PM,89.6,28.4,11,30.01,8.0,ESE,6.9,-,N/A,,Clear,110,2012-09-06 19:55:00
2:35 PM,91.4,28.4,10,29.99,7.0,South,10.4,16.1,N/A,,Clear,190,2012-09-06 20:35:00
2:55 PM,89.6,28.4,11,29.98,10.0,SSE,9.2,16.1,N/A,,Clear,160,2012-09-06 20:55:00
3:15 PM,89.6,26.6,10,29.97,7.0,SSE,8.1,-,N/A,,Clear,150,2012-09-06 21:15:00
3:35 PM,89.6,26.6,10,29.97,10.0,SSE,6.9,-,N/A,,Clear,160,2012-09-06 21:35:00
3:55 PM,89.6,26.6,10,29.97,10.0,SSE,6.9,-,N/A,,Clear,160,2012-09-06 21:55:00
4:15 PM,87.8,26.6,11,29.97,10.0,SE,8.1,-,N/A,,Clear,140,2012-09-06 22:15:00
4:35 PM,87.8,26.6,11,29.97,10.0,SSE,8.1,-,N/A,,Clear,160,2012-09-06 22:35:00
4:55 PM,87.8,26.6,11,29.97,10.0,ESE,8.1,-,N/A,,Clear,120,2012-09-06 22:55:00
5:15 PM,87.8,26.6,11,29.97,10.0,ESE,6.9,-,N/A,,Clear,110,2012-09-06 23:15:00
5:35 PM,86.0,26.6,12,29.98,10.0,SSE,3.5,-,N/A,,Clear,150,2012-09-06 23:35:00
5:55 PM,84.2,30.2,14,29.99,10.0,North,8.1,-,N/A,,Clear,360,2012-09-06 23:55:00
6:15 PM,84.2,28.4,13,29.99,10.0,NNW,11.5,-,N/A,,Partly Cloudy,330,2012-09-07 00:15:00
6:35 PM,82.4,30.2,15,29.99,10.0,North,9.2,-,N/A,,Clear,350,2012-09-07 00:35:00
6:55 PM,82.4,30.2,15,29.99,10.0,North,9.2,-,N/A,,Clear,350,2012-09-07 00:55:00
7:15 PM,80.6,32.0,17,29.99,10.0,North,5.8,-,N/A,,Clear,350,2012-09-07 01:15:00
7:35 PM,80.6,30.2,16,29.99,10.0,North,4.6,-,N/A,,Clear,350,2012-09-07 01:35:00
7:55 PM,80.6,32.0,17,30.00,10.0,NW,9.2,-,N/A,,Clear,320,2012-09-07 01:55:00
8:15 PM,80.6,32.0,17,30.00,10.0,North,8.1,-,N/A,,Clear,360,2012-09-07 02:15:00
8:35 PM,78.8,33.8,20,30.01,10.0,North,6.9,-,N/A,,Clear,10,2012-09-07 02:35:00
8:55 PM,78.8,33.8,20,30.01,10.0,NE,6.9,-,N/A,,Clear,40,2012-09-07 02:55:00
9:15 PM,75.2,33.8,22,30.01,10.0,ENE,5.8,-,N/A,,Clear,60,2012-09-07 03:15:00
9:35 PM,75.2,33.8,22,30.02,10.0,NE,6.9,-,N/A,,Clear,40,2012-09-07 03:35:00
9:55 PM,77.0,33.8,21,30.03,10.0,North,5.8,-,N/A,,Clear,10,2012-09-07 03:55:00
10:15 PM,77.0,33.8,21,30.06,10.0,North,21.9,27.6,N/A,,Clear,10,2012-09-07 04:15:00
10:35 PM,73.4,30.2,20,30.09,10.0,North,24.2,31.1,N/A,,Clear,10,2012-09-07 04:35:00
10:55 PM,71.6,32.0,23,30.11,10.0,North,18.4,26.5,N/A,,Clear,360,2012-09-07 04:55:00
11:15 PM,69.8,32.0,25,30.13,10.0,North,21.9,-,N/A,,Clear,350,2012-09-07 05:15:00
11:35 PM,69.8,33.8,27,30.14,10.0,North,20.7,25.3,N/A,,Clear,350,2012-09-07 05:35:00
11:55 PM,68.0,33.8,28,30.16,10.0,North,15.0,-,N/A,,Clear,10,2012-09-07 05:55:00